C/2017 E3 ( PanSTARRS )

Japanese version
Home page
Updated on March 18, 2017

---------------------------------------------------------------------

* Profile

Discovery Date March 7, 2017
Magnitude 19.2 mag
Discoverer Pan-STARRS 1 telescope (Haleakala)

* Orbital Elements

T 2016 Sept. 5.42369 TT                                 MPCW
q   5.6906501            (2000.0)            P               Q
                   Peri.  306.43153     -0.63953064     -0.44664091
                   Node   222.34133     +0.13227446     -0.86570664
e   1.0            Incl.   68.27611     -0.75730048     +0.22597327
From 62 observations 2017 Mar. 7-13.

* Magnitudes Graph

        m1 = 6.5 + 5 log d + 10.0 log r

---------------------------------------------------------------------

The orbital elements are published on M.P.E.C. 2017-E85.
The magnitudes graphs are made with Comet for Windows.

---------------------------------------------------------------------

Copyright(C) Seiichi Yoshida (comet@aerith.net). All rights reserved.